Hourly Data Report for August 29, 2004

TORONTO CITY
ONTARIO

43°40'00.000" N
79°24'00.000" W
112.50 m
6158355
71508
XTO

Download Data

Hourly Data (August 2004)
Hourly Data Report for August 29, 2004
TIME
LST
Temp Definition
°C
Dew Point Definition
°C
Rel Hum Definition
%
Precip. Amount Definition
mm

Wind Dir Definition
10's deg

Wind Spd Definition
km/h
Visibility Definition
km
Stn Press Definition
kPa
Hmdx Definition


Wind Chill Definition


Weather Definition


00:00 19.3 18.2 93   LegendMM LegendMM LegendMM 99.82     LegendNANA
01:00 19.6 18.2 92   LegendMM LegendMM LegendMM 99.78     LegendNANA
02:00 19.8 17.9 89   LegendMM LegendMM LegendMM 99.79     LegendNANA
03:00 19.9 18.2 90   LegendMM LegendMM LegendMM 99.75     LegendNANA
04:00 20.2 18.4 89   LegendMM LegendMM LegendMM 99.75 27   LegendNANA
05:00 20.0 18.2 89   LegendMM LegendMM LegendMM 99.73 26   LegendNANA
06:00 20.1 18.4 90   LegendMM LegendMM LegendMM 99.72 26   LegendNANA
07:00 20.5 19.2 92   LegendMM LegendMM LegendMM 99.69 27   LegendNANA
08:00 20.8 19.3 91   LegendMM LegendMM LegendMM 99.70 28   LegendNANA
09:00 20.8 19.8 94   LegendMM LegendMM LegendMM 99.69 28   LegendNANA
10:00 20.8 19.8 94   LegendMM LegendMM LegendMM 99.73 28   LegendNANA
11:00 20.0 19.6 98   LegendMM LegendMM LegendMM 99.78 27   LegendNANA
12:00 20.3 19.8 97   LegendMM LegendMM LegendMM 99.78 28   LegendNANA
13:00 20.6 19.5 93   LegendMM LegendMM LegendMM 99.81 28   LegendNANA
14:00 20.2 19.2 94   LegendMM LegendMM LegendMM 99.79 27   LegendNANA
15:00 20.1 19.2 95   LegendMM LegendMM LegendMM 99.81 27   LegendNANA
16:00 20.3 18.8 91   LegendMM LegendMM LegendMM 99.84 27   LegendNANA
17:00 19.9 18.2 90   LegendMM LegendMM LegendMM 99.90     LegendNANA
18:00 19.6 17.6 88   LegendMM LegendMM LegendMM 99.94     LegendNANA
19:00 19.1 17.0 88   LegendMM LegendMM LegendMM 100.02     LegendNANA
20:00 18.6 16.3 86   LegendMM LegendMM LegendMM 100.09     LegendNANA
21:00 18.3 16.1 87   LegendMM LegendMM LegendMM 100.10     LegendNANA
22:00 17.8 15.6 87   LegendMM LegendMM LegendMM 100.14     LegendNANA
23:00 17.5 15.3 87   LegendMM LegendMM LegendMM 100.14     LegendNANA

Notes on Data Quality.

Legend

  • E = Estimated
  • M = Missing
  • NA = Not Available*
  • [empty] = Indicates an unobserved value
Date modified: